Вернуться в каталог

DELTA 1 DEB

АктивенUNKNOWN
NORAD 10715·DEBRIS·🇺🇸 United States

Запущен Jul 29, 1976 с Vandenberg Space Force Base

Loading…

Ближайшие Пролёты (ближайшие 24 часа)

TLE

СвежийSource: Space-Track

Эпоха: Sep 14, 2026, 06:06 UTC

1 10715U 76077AL  26257.25429744 -.00000009  00000-0  41292-3 0  9991
2 10715 102.5617   8.7402 0435231  91.4720 300.1516 11.63952636132554

Отслеживайте DELTA 1 DEB в реальном времени с AllMySat

Download on the App Store